Regional Weather Roundup
Issued by NWS

Home | Current Version | Previous Version | Text Only | Print | Product List | Glossary Off
Versions: 1 2 3 4 5 6 7 8 9 10 11 12 13 14 15 16 17 18 19 20 21 22 23 24 25 26 27

000
ASUS45 KGTF 271110
RWRMT
MONTANA HOURLY WEATHER ROUNDUP
NATIONAL WEATHER SERVICE GREAT FALLS MT
500 AM MDT MON APR 27 2015

NOTE: "FAIR" INDICATES FEW OR NO CLOUDS BELOW 12000 FEET WITH NO
SIGNIFICANT WEATHER AND/OR OBSTRUCTIONS TO VISIBILITY.

MTZ001>007-043-271200-
WEST OF THE DIVIDE

CITY           SKY/WX    TMP DP  RH WIND       PRES   REMARKS
KALISPELL      SUNNY     27  27 100 CALM      30.29R FOG
MISSOULA       CLOUDY    37  35  92 CALM      30.35R
BUTTE          CLEAR     26  24  92 CALM      30.29R
DEER LODGE       N/A     30  28  93 CALM      30.35R
EUREKA           N/A     30  27  86 S3        30.29R
HAMILTON         N/A     32  28  86 S5        30.33R
LIBBY            N/A     27  23  86 CALM      30.32R
$$

MTZ008-052>055-271200-
SOUTHWEST MONTANA

CITY           SKY/WX    TMP DP  RH WIND       PRES   REMARKS
BOZEMAN        CLOUDY    34  32  92 CALM      30.30S
DILLON         CLEAR     30  27  88 E3        30.27S
$$

MTZ009-010-012-014-046-048-049-054-271200-
EAST SLOPES AND CENTRAL MONTANA

CITY           SKY/WX    TMP DP  RH WIND       PRES   REMARKS
CUT BANK       CLEAR     31  26  82 W9        30.20S WCI  23
GREAT FALLS    CLEAR     32  28  85 SW12      30.24R WCI  23
MALMSTROM AFB  CLEAR     28  26  91 SW6       30.26R WCI  22
HELENA         CLEAR     30  28  92 CALM      30.30R
$$

MTZ011-013-016-021-045-047-050-051-271200-
NORTH CENTRAL MONTANA

CITY           SKY/WX    TMP DP  RH WIND       PRES   REMARKS
HAVRE          CLEAR     26  25  96 W3        30.25S
LEWISTOWN      CLEAR     27  24  89 SE6       30.25R WCI  20
CHINOOK          N/A     25  23  93 CALM      30.27S
FORT BENTON      N/A     28  27  93 SW3       30.28S
$$

MTZ017>020-022>042-056>058-061-062-271200-
EASTERN PLAINS

CITY           SKY/WX    TMP DP  RH WIND       PRES   REMARKS
BAKER          LGT RAIN  37  36  96 NW9       30.26R WCI  30
BILLINGS       MOCLDY    35  33  92 SW5       30.29R
GLASGOW        CLOUDY    39  36  89 W3        30.27S
JORDAN           N/A     38  36  92 W5        30.28S
LIVINGSTON     CLOUDY    37  32  82 W8        30.27R WCI  31
MILES CITY     CLOUDY    37  36  96 W6        30.29R
SIDNEY         CLOUDY    39  37  93 W6        30.28S
WOLF POINT     LGT RAIN  41  39  93 SW3       30.29R
BIG TIMBER       N/A     34  32  93 W7        30.27R VSB 1/2 WCI  28
FORSYTH          N/A     37  37 100 W6        30.30R
PLENTYWOOD       N/A     39  39 100 CALM      30.26R
POPLAR           N/A     39  39 100 SW3       30.29R
$$

REGIONAL REPORTS...DAKOTAS

CITY           SKY/WX    TMP DP  RH WIND       PRES   REMARKS
WILLISTON      LGT RAIN  41  39  93 CALM      30.27R
MINOT          LGT RAIN  41  38  89 NW8       30.23R
DICKINSON      LGT RAIN  42  40  92 NW9       30.20R
BEACH          CLOUDY    37  37 100 N9        30.27R WCI  31
CROSBY         CLOUDY    37  37 100 CALM      30.27R
WATFORD CITY   LGT RAIN  39  39 100 N3        30.25R
BISMARCK       CLOUDY    44  43  96 NW7       30.19R FOG
GRAND FORKS    MOCLDY    32  26  78 SW5       30.18R
FARGO          MOCLDY    37  24  59 CALM      30.19S
BUFFALO SD       N/A     38  37  97 NW18      30.16R WCI  28
RAPID CITY     CLOUDY    42  39  89 N21       30.19R
$$

REGIONAL REPORTS...WYOMING/IDAHO/WASHINGTON

CITY           SKY/WX    TMP DP  RH WIND       PRES   REMARKS
GILLETTE       FLURRIES  34  32  92 N7        30.24R WCI  28
SHERIDAN       CLOUDY    36  34  92 NW6       30.27R WCI  31
BUFFALO WY     CLOUDY    34  32  92 N5        30.25R FOG
CODY           CLOUDY    34  34 100 CALM      30.25S
YELLOWSTONE LA   N/A     26  23  88 CALM      30.25R
IDAHO FALLS    CLEAR     31  28  89 N5        30.24R
SALMON         CLEAR     34  30  86 SE3       30.30R
BOISE          CLEAR     37  26  64 S3        30.25R
SPOKANE        PTCLDY    40  26  57 S6        30.29R
$$

REGIONAL REPORTS...ALBERTA

CITY           SKY/WX    TMP DP  RH WIND       PRES   REMARKS
EDMONTON       CLEAR     36  27  69 SW5       30.05R
CALGARY        PTCLDY    34  21  60 S6        30.10R WCI  29
LETHBRIDGE     CLEAR     39  28  65 SW15      30.15S WCI  31
MEDICINE HAT   CLEAR     32  28  86 S8        30.17S WCI  25
$$

REGIONAL REPORTS...SASKATCHEWAN

CITY           SKY/WX    TMP DP  RH WIND       PRES   REMARKS
SWIFT CURRENT  CLEAR     30  27  86 S8        30.23R WCI  23
REGINA         CLOUDY    32  30  93 SW5       30.26R
SASKATOON      CLEAR     27  25  93 S6        30.25R WCI  20
$$



USA.gov is the U.S. government's official web portal to all federal, state and local government web resources and services.